Temperature
16 16 16 16 16 16 16 15 15 15 15 15 15 15 15 15 14 14 14 14 14 14 14 14 14 14 14 14 14 14 14 14 13 13 13 13 13 13 13 13 13 13 13
16 16 16 16 16 16 16 15 15 15 15 15 15 15 15 14 14 14 14 14 14 14 14 14 14 14 14 14 14 14 14 13 13 13 13 13 13 13 13 13 13 13 13
16 16 16 16 16 16 15 15 15 15 15 15 15 15 14 14 14 14 14 14 14 14 13 13 13 13 13 13 13 13 13 13 13 13 13 13 12 12 12 12 12 12 12
16 16 16 16 16 15 15 15 15 15 14 14 14 14 14 14 14 14 14 14 14 13 13 13 13 13 13 13 13 13 13 13 13 13 13 13 12 12 12 12 12 12 12
16 16 16 16 16 15 15 15 15 14 14 14 14 14 14 14 14 14 14 14 13 13 13 13 13 13 13 13 13 13 13 13 13 13 13 12 12 12 12 11 11 11 11
16 16 16 16 15 15 15 15 14 14 14 14 14 14 14 14 14 14 14 14 13 13 13 13 13 13 13 12 12 13 13 13 13 12 12 12 12 12 12 11 11 11 11
15 15 15 15 15 15 15 15 14 14 14 14 14 14 14 14 14 14 13 13 13 13 13 13 13 12 12 12 12 12 12 12 12 12 12 12 12 12 12 11 11 11 11
15 15 15 15 15 15 15 15 14 14 14 14 14 14 13 13 13 13 13 13 13 13 13 12 12 12 12 12 12 12 12 12 12 12 12 12 12 12 11 11 11 11 10
15 15 15 15 15 15 15 14 14 14 14 14 13 13 13 13 13 13 13 13 13 12 12 12 12 12 12 12 12 12 12 12 12 12 12 12 11 11 11 11 11 11 10
15 15 15 15 15 15 15 14 14 14 14 13 13 13 13 13 13 13 13 13 12 12 12 12 12 12 12 11 11 11 11 11 11 11 11 12 11 11 11 11 11 11 11
15 15 15 15 15 14 14 14 14 14 13 13 13 13 13 13 12 12 12 12 12 12 12 12 12 11 11 11 11 11 11 11 11 11 11 11 11 11 11 11 11 11 11
15 15 15 14 14 14 14 14 13 13 13 13 13 13 12 12 12 12 12 12 12 12 11 11 11 11 11 11 11 11 11 11 11 11 11 11 11 11 11 11 11 11 10
14 14 14 14 14 13 13 13 13 13 13 12 12 12 12 12 12 12 12 11 11 11 11 11 11 11 11 11 11 11 11 11 10 10 10 11 11 11 11 11 10 10 10
13 13 13 13 13 13 13 13 13 13 12 12 12 12 12 12 12 11 11 11 11 11 11 11 11 11 11 11 10 10 10 10 10 10 10 10 10 10 10 10 10 10 10
12 12 13 13 13 13 13 12 12 12 12 12 12 12 11 11 11 11 11 11 11 11 10 10 10 10 10 10 10 10 10 10 10 10 10 10 10 10 10 10 10 10 10
12 12 12 12 12 12 12 12 12 12 12 11 11 11 11 11 11 11 11 10 10 10 10 10 10 10 10 10 10 10 10 10 10 10 10 10 10 10 10 10 10 9 9
12 12 12 12 12 12 12 12 12 11 11 11 11 11 11 11 10 10 10 10 10 10 10 10 10 10 10 10 9 9 9 9 9 9 9 9 9 9 9 9 9 9 9
11 12 12 12 12 12 12 11 11 11 11 11 11 10 10 10 10 10 10 10 10 10 10 9 9 9 9 9 9 9 9 9 9 9 9 9 9 9 9 9 9 9 9
11 12 12 12 12 11 11 11 11 11 11 11 10 10 10 10 9 9 9 9 9 9 9 9 9 9 9 9 9 8 8 9 9 9 9 9 9 9 9 9 9 9 9
11 11 11 11 11 11 11 11 11 10 10 10 10 10 10 9 9 9 9 9 9 9 9 9 9 9 9 8 8 8 8 8 8 9 9 9 9 9 9 9 9 9 9
11 11 11 11 11 10 10 10 10 10 10 10 10 9 9 9 9 9 8 8 8 8 8 8 8 8 8 8 8 8 8 8 8 8 8 9 8 8 8 8 8 8 8
11 11 10 10 10 10 10 10 10 10 9 9 9 9 9 9 8 8 8 8 8 8 8 8 8 8 8 8 8 8 8 8 8 8 8 8 8 8 8 8 8 8 8
10 10 10 10 10 9 9 9 9 9 9 9 9 8 8 8 8 8 8 8 8 7 7 7 7 7 7 7 7 7 7 7 7 8 8 8 8 7 7 8 7 7 8
10 10 9 9 9 9 9 9 9 8 8 8 8 8 8 8 8 7 7 7 7 7 7 7 7 7 7 7 7 7 7 7 7 7 7 7 7 7 7 7 7 7 7
9 9 9 9 9 8 8 8 8 8 8 8 8 7 7 7 7 7 7 7 7 7 7 7 7 7 7 7 7 7 7 7 7 7 7 7 7 7 7 7 7 7 7
9 9 8 8 8 8 8 8 8 7 7 7 7 7 7 7 7 7 7 7 7 6 6 6 6 6 6 6 6 6 6 6 6 6 6 6 6 6 6 6 6 6 6
Wind_Speed
3 2 3 3 3 3 3 3 3 3 3 2 2 2 2 2 3 3 4 4 4 4 5 3 3 3 3 2 3 3 4 3 2 3 3 4 5 5 5 5 6 7 9
2 3 3 3 4 3 3 2 2 2 2 2 1 1 1 2 2 3 5 6 5 4 4 3 2 2 2 3 3 2 2 1 2 2 2 3 4 4 5 5 5 6 7
6 5 4 4 4 4 4 4 3 3 2 3 3 3 3 3 3 4 3 4 4 5 4 3 3 2 2 2 1 2 2 1 1 2 2 2 1 2 3 4 5 6 5
5 5 5 5 5 5 4 4 3 3 2 3 4 4 2 1 0 1 1 3 4 4 4 3 3 2 1 1 1 1 1 2 1 1 2 2 3 2 1 3 4 5 5
6 6 6 7 5 4 4 4 3 3 2 3 4 4 2 1 1 1 2 3 3 4 4 3 3 2 1 0 0 1 1 1 1 1 1 2 2 2 2 1 3 3 3
6 5 5 4 3 3 4 4 4 3 2 3 3 4 3 2 2 1 1 1 2 2 3 3 2 2 1 0 0 1 1 1 1 1 2 2 2 2 2 2 1 2 3
5 4 4 4 4 4 4 4 4 3 3 3 3 3 3 3 3 2 1 0 1 1 2 2 1 1 1 0 1 0 1 1 1 1 1 2 2 2 3 2 1 1 2
5 5 5 6 5 5 5 5 5 3 3 3 3 2 2 2 2 2 1 1 1 1 1 1 0 0 0 0 0 0 1 1 1 1 1 1 1 2 3 3 3 0 2
5 5 5 5 5 5 5 5 5 4 3 3 2 2 1 1 1 1 1 1 1 0 0 0 0 1 0 0 0 0 1 0 1 1 1 1 1 1 2 2 3 3 1
4 4 5 5 5 5 4 4 4 5 4 3 3 3 2 2 2 1 1 1 1 0 0 0 0 0 1 1 1 0 1 0 0 1 1 1 1 1 1 2 2 2 3
5 5 5 5 4 3 3 4 3 2 2 3 3 2 2 2 2 2 2 2 1 1 1 1 1 0 0 0 0 0 0 0 1 0 0 1 1 1 1 2 2 2 2
3 3 4 3 3 3 3 3 3 3 2 2 2 2 2 2 2 1 2 1 1 1 1 1 1 1 0 0 1 1 0 1 1 1 1 1 1 1 2 2 2 2 2
2 2 3 3 3 3 3 3 3 3 2 2 2 2 1 1 2 2 2 1 1 1 0 0 1 1 1 1 1 1 1 1 2 2 2 2 2 2 2 2 2 2 1
2 2 2 2 3 3 3 3 2 2 2 2 2 2 1 2 2 2 1 1 1 1 1 1 1 1 1 1 1 1 1 1 1 2 2 2 3 4 4 3 3 2 2
1 1 2 3 2 2 2 2 2 2 2 2 2 2 1 1 1 1 1 1 1 1 1 1 1 1 1 2 1 2 2 1 1 2 2 3 3 4 3 3 3 3 2
1 1 2 2 3 3 3 3 2 2 3 3 2 2 1 1 0 1 1 1 1 1 1 1 1 1 2 2 2 2 1 1 2 2 2 3 3 3 4 4 4 5 4
2 2 2 3 3 4 4 3 3 2 2 2 2 2 2 1 1 1 0 1 1 1 1 2 2 2 3 3 3 3 1 2 2 2 2 3 3 3 2 3 4 4 5
2 2 1 2 2 3 2 2 2 3 3 2 1 1 2 2 1 1 1 1 1 1 2 2 2 2 4 4 4 3 1 1 2 3 3 3 4 3 3 2 2 3 4
3 3 2 2 2 2 2 3 2 2 2 2 3 2 2 2 2 2 2 2 1 2 2 2 2 3 4 5 4 3 1 1 3 3 3 3 4 5 4 2 3 3 4
1 1 1 2 2 1 2 3 3 2 3 4 3 3 2 3 3 3 3 2 2 2 2 2 3 3 4 5 4 3 1 2 3 3 3 5 5 5 4 3 3 4 5
1 1 2 2 2 2 3 3 2 3 4 3 2 2 2 3 4 3 2 2 2 2 2 2 3 3 4 5 4 4 2 3 3 3 3 4 6 5 4 4 4 5 4
1 2 2 1 1 2 3 2 2 3 2 2 1 1 2 2 2 2 2 2 1 1 2 2 3 3 3 4 4 5 5 4 3 3 3 4 6 5 5 4 5 4 2
1 1 2 1 1 1 3 2 2 1 1 1 1 1 1 1 1 2 2 2 2 2 2 2 3 3 3 4 5 6 6 5 3 3 4 5 5 4 3 4 3 1 1
1 1 2 2 1 1 1 2 2 1 1 1 1 1 1 2 1 2 2 2 2 3 3 3 4 3 3 3 3 3 3 4 3 3 3 3 3 2 2 2 2 1 2
1 1 2 2 2 1 1 1 1 1 1 1 1 1 1 2 2 2 2 3 3 4 4 4 4 3 4 5 5 3 3 2 2 1 1 1 1 1 1 2 2 2 2
1 1 1 1 1 1 1 1 1 1 1 1 1 1 1 1 1 2 3 4 4 5 5 5 4 4 6 6 5 5 5 4 2 1 1 2 2 3 3 3 3 3 3
Wind_Direction
223 187 167 152 131 117 116 125 116 108 96 71 64 55 33 22 27 36 45 54 71 85 93 85 75 77 86 88 95 99 83 62 62 69 44 26 30 37 32 32 33 28 23
201 183 172 156 155 155 145 137 136 125 114 97 89 94 78 44 31 23 39 44 55 67 88 95 89 79 86 80 79 94 97 63 49 86 74 22 7 15 23 23 29 21 22
198 193 186 180 168 171 176 172 164 146 127 104 83 59 48 36 26 19 18 19 44 58 70 88 99 90 100 122 119 116 120 134 40 66 120 119 233 333 356 13 20 17 21
194 188 187 187 190 193 185 171 161 149 135 122 114 112 109 105 292 345 10 14 34 47 57 71 85 93 98 120 183 127 123 135 143 55 56 116 153 140 346 347 358 10 20
193 194 196 196 192 182 176 169 153 145 136 137 139 131 119 129 88 54 52 30 24 37 49 64 72 72 75 103 99 100 121 137 159 155 127 90 69 101 142 302 334 352 356
197 199 195 178 171 167 165 161 155 155 148 151 148 147 148 141 112 68 55 22 16 19 27 53 61 55 47 71 173 138 147 177 147 152 149 152 148 161 150 179 279 324 326
186 187 178 177 176 175 177 174 169 170 170 161 161 171 172 166 169 175 182 179 7 348 337 15 29 20 345 256 145 131 227 211 172 179 180 162 170 157 150 148 180 327 324
183 189 190 189 188 185 183 180 182 183 183 180 188 181 168 171 192 193 188 211 237 248 277 343 351 327 305 330 131 103 249 213 200 210 178 157 179 157 156 158 153 114 344
189 190 189 187 187 186 189 186 184 188 193 191 187 183 177 173 186 187 172 191 232 274 347 324 5 351 347 358 112 249 273 256 207 211 193 168 188 166 166 159 162 160 195
191 188 189 190 191 191 188 180 180 189 194 188 191 195 195 196 184 152 163 188 226 304 113 320 50 358 4 30 82 338 300 176 242 184 183 193 195 174 162 162 157 158 168
198 194 193 191 185 175 169 173 176 172 182 192 195 180 185 183 156 162 190 195 209 209 200 215 200 198 313 29 98 317 322 201 267 282 224 222 192 182 181 158 144 140 146
192 187 181 172 166 168 174 180 181 181 190 186 175 178 173 158 156 193 214 201 201 226 223 220 201 219 234 218 198 240 275 212 248 258 255 243 198 199 196 179 174 176 171
149 149 152 163 174 178 181 182 184 185 178 161 153 149 157 167 191 215 218 206 197 206 215 190 215 238 234 226 239 231 239 246 249 235 229 243 193 212 213 199 192 191 181
133 143 167 183 187 182 182 184 191 180 173 158 148 147 177 202 217 220 204 194 187 190 214 227 241 248 236 221 228 215 218 249 268 254 236 240 216 216 210 205 198 182 167
105 178 196 200 196 180 175 183 193 187 179 159 160 195 208 203 195 214 216 200 191 209 209 202 259 282 253 237 223 204 211 224 270 279 262 256 254 234 212 210 197 178 173
228 234 218 200 194 193 188 192 197 197 178 172 188 198 190 179 176 226 226 215 215 219 202 211 239 269 273 271 258 247 212 224 249 275 283 281 275 268 251 240 212 190 183
240 232 229 216 211 201 191 189 193 181 177 187 193 194 194 200 219 231 234 246 244 228 229 244 248 262 269 279 281 272 237 241 251 256 261 278 278 271 252 246 235 222 216
246 240 227 224 217 195 181 175 166 170 175 185 206 217 207 219 236 221 224 249 242 226 233 245 249 262 278 282 280 284 256 256 264 258 246 248 266 258 243 221 223 234 236
227 221 209 197 180 179 172 144 158 182 184 205 217 225 213 216 222 231 239 240 235 248 248 247 242 252 273 280 278 282 233 268 280 277 276 260 254 268 257 222 228 249 265
222 182 153 128 139 170 154 138 161 182 225 236 231 222 215 216 224 232 236 244 231 241 249 257 252 249 261 273 268 271 233 263 277 285 285 282 274 265 241 214 214 236 254
138 127 128 138 165 156 144 146 176 216 235 237 227 222 222 225 229 234 238 238 239 250 257 261 268 257 261 270 260 254 238 244 259 270 276 281 290 272 247 230 225 247 250
102 119 124 139 151 149 148 160 215 238 235 215 212 231 240 243 250 228 243 242 227 242 264 273 285 280 278 276 270 260 255 247 233 256 264 273 287 280 261 244 256 265 252
135 123 136 139 131 166 167 184 240 239 204 194 243 271 268 265 244 223 234 248 234 236 259 260 268 279 279 277 276 269 263 256 244 253 269 282 285 282 265 263 267 247 196
123 126 125 138 203 244 219 214 229 202 165 184 252 276 269 281 275 254 233 229 238 244 253 257 264 274 278 271 266 261 266 264 266 271 280 289 294 268 268 277 254 229 210
113 135 160 182 213 225 235 244 223 168 167 201 258 275 267 260 273 273 250 244 243 240 244 246 243 253 267 273 277 261 247 238 243 273 320 324 317 292 264 264 255 240 238
135 135 169 194 214 205 234 254 227 176 171 220 259 259 271 281 282 292 307 293 276 285 280 272 270 268 273 287 285 278 269 255 235 233 262 255 253 253 251 243 246 240 236
Height
1527 1529 1530 1531 1531 1532 1533 1534 1534 1535 1535 1535 1535 1535 1535 1536 1536 1536 1536 1536 1536 1536 1536 1536 1536 1536 1536 1536 1536 1536 1536 1535 1535 1535 1535 1535 1535 1534 1534 1533 1533 1532 1531
1526 1527 1529 1530 1531 1532 1533 1534 1534 1535 1535 1536 1536 1536 1536 1536 1537 1537 1537 1537 1537 1537 1537 1536 1536 1536 1537 1537 1536 1536 1536 1536 1536 1536 1535 1535 1536 1535 1535 1534 1534 1533 1532
1524 1525 1527 1529 1530 1531 1532 1533 1534 1535 1536 1536 1537 1537 1537 1537 1537 1537 1537 1537 1537 1537 1537 1537 1536 1536 1537 1537 1537 1537 1537 1536 1536 1536 1536 1536 1536 1536 1536 1535 1534 1533 1532
1522 1523 1525 1527 1528 1530 1531 1533 1534 1535 1536 1536 1536 1537 1537 1537 1537 1537 1537 1537 1537 1537 1537 1537 1536 1536 1536 1536 1536 1537 1536 1536 1536 1536 1536 1536 1536 1536 1535 1535 1534 1533 1532
1519 1521 1523 1525 1527 1529 1530 1532 1533 1534 1535 1536 1536 1537 1537 1537 1537 1537 1537 1537 1537 1537 1537 1536 1536 1536 1536 1536 1536 1536 1536 1536 1536 1535 1535 1535 1535 1535 1534 1534 1534 1533 1533
1516 1519 1521 1524 1525 1527 1528 1530 1532 1533 1534 1535 1536 1536 1536 1537 1537 1537 1537 1536 1536 1536 1536 1536 1536 1535 1535 1535 1535 1535 1535 1535 1535 1535 1534 1534 1534 1534 1533 1533 1532 1532 1532
1514 1517 1519 1521 1523 1525 1526 1528 1530 1531 1533 1534 1534 1535 1535 1536 1536 1536 1536 1536 1535 1535 1535 1535 1534 1534 1534 1534 1534 1534 1534 1534 1533 1533 1533 1533 1533 1533 1533 1532 1532 1531 1531
1512 1514 1516 1519 1521 1523 1525 1527 1528 1530 1531 1532 1533 1534 1534 1535 1535 1535 1535 1535 1535 1535 1534 1534 1534 1533 1532 1532 1532 1532 1532 1532 1532 1532 1531 1532 1532 1532 1532 1532 1531 1530 1530
1510 1512 1515 1517 1519 1521 1523 1525 1527 1528 1530 1531 1532 1532 1533 1533 1533 1534 1534 1534 1534 1534 1533 1533 1532 1532 1531 1531 1531 1530 1530 1530 1530 1530 1530 1530 1531 1531 1531 1531 1531 1531 1529
1509 1511 1513 1515 1517 1519 1521 1523 1525 1527 1528 1529 1530 1530 1531 1532 1532 1532 1532 1532 1532 1532 1532 1531 1531 1530 1530 1530 1529 1529 1529 1529 1528 1528 1528 1528 1529 1529 1530 1530 1530 1529 1529
1507 1509 1511 1513 1515 1518 1519 1521 1523 1524 1525 1526 1527 1528 1529 1529 1530 1530 1530 1531 1531 1531 1530 1530 1529 1529 1529 1528 1528 1527 1527 1527 1527 1527 1527 1527 1527 1527 1528 1528 1528 1528 1528
1506 1508 1510 1512 1514 1516 1517 1519 1520 1522 1523 1524 1525 1526 1526 1527 1527 1528 1528 1528 1529 1528 1528 1528 1527 1527 1527 1526 1526 1526 1525 1525 1525 1525 1525 1524 1525 1525 1526 1526 1526 1526 1526
1505 1507 1508 1510 1512 1513 1515 1516 1518 1519 1521 1522 1522 1523 1524 1524 1525 1525 1525 1526 1526 1526 1526 1526 1525 1525 1525 1524 1524 1523 1523 1523 1523 1523 1523 1523 1523 1523 1523 1523 1523 1523 1523
1504 1506 1507 1508 1510 1511 1513 1514 1516 1517 1518 1519 1520 1520 1521 1522 1522 1523 1523 1523 1523 1523 1523 1523 1523 1523 1522 1522 1522 1521 1521 1520 1520 1520 1520 1520 1520 1520 1520 1521 1521 1521 1521
1504 1505 1506 1507 1508 1509 1511 1512 1514 1515 1516 1517 1517 1518 1519 1519 1520 1520 1521 1521 1521 1521 1521 1521 1521 1521 1520 1520 1519 1519 1518 1518 1518 1518 1518 1518 1518 1518 1518 1518 1518 1518 1518
1503 1504 1504 1505 1506 1507 1508 1510 1511 1513 1514 1515 1515 1516 1516 1517 1517 1518 1518 1519 1519 1519 1519 1519 1518 1518 1518 1517 1517 1517 1516 1516 1515 1515 1515 1515 1515 1515 1515 1515 1515 1515 1515
1502 1502 1502 1503 1504 1505 1506 1507 1509 1511 1512 1513 1513 1514 1514 1514 1515 1515 1516 1516 1516 1516 1516 1516 1516 1515 1515 1515 1515 1514 1513 1513 1512 1512 1512 1512 1512 1512 1512 1512 1512 1512 1512
1500 1501 1501 1501 1502 1503 1504 1506 1507 1508 1510 1510 1511 1511 1512 1512 1513 1513 1513 1513 1514 1513 1513 1513 1513 1513 1512 1512 1512 1512 1511 1510 1509 1509 1509 1509 1508 1508 1508 1508 1508 1508 1508
1499 1499 1499 1500 1501 1502 1503 1504 1506 1507 1507 1508 1508 1509 1510 1510 1510 1510 1510 1510 1511 1510 1510 1510 1510 1509 1509 1509 1509 1509 1508 1507 1506 1506 1506 1505 1505 1505 1505 1505 1505 1505 1505
1497 1498 1498 1499 1500 1501 1502 1503 1504 1504 1505 1505 1506 1507 1507 1507 1508 1508 1508 1508 1508 1508 1507 1507 1507 1506 1506 1506 1506 1506 1505 1504 1503 1503 1502 1502 1501 1501 1501 1501 1501 1501 1501
1496 1496 1496 1497 1498 1499 1500 1501 1502 1502 1503 1503 1503 1504 1504 1505 1505 1505 1505 1505 1505 1505 1504 1504 1503 1503 1503 1503 1502 1502 1501 1501 1500 1499 1499 1498 1498 1497 1497 1497 1497 1497 1498
1494 1494 1494 1495 1496 1497 1498 1498 1499 1500 1500 1500 1501 1501 1501 1502 1502 1502 1502 1502 1501 1501 1501 1500 1500 1500 1499 1499 1498 1498 1498 1497 1497 1496 1495 1495 1494 1493 1493 1493 1493 1493 1494
1492 1493 1493 1493 1494 1495 1496 1496 1496 1497 1498 1498 1498 1498 1498 1499 1499 1499 1498 1498 1498 1497 1497 1497 1496 1495 1495 1495 1495 1494 1494 1494 1493 1492 1492 1491 1491 1490 1489 1489 1489 1489 1489
1491 1491 1491 1492 1492 1493 1493 1494 1495 1495 1495 1494 1494 1495 1495 1495 1495 1495 1495 1495 1494 1494 1493 1493 1492 1492 1491 1491 1490 1490 1490 1489 1488 1488 1487 1487 1486 1486 1486 1485 1485 1485 1486
1489 1490 1490 1490 1490 1491 1491 1492 1492 1492 1492 1492 1491 1492 1492 1492 1491 1491 1491 1491 1491 1490 1490 1489 1489 1488 1487 1487 1487 1486 1486 1485 1485 1484 1483 1482 1482 1481 1481 1481 1481 1481 1482
1488 1488 1488 1489 1489 1489 1489 1489 1489 1489 1489 1489 1489 1488 1488 1488 1488 1487 1487 1487 1487 1487 1487 1486 1486 1484 1484 1484 1483 1483 1482 1482 1481 1480 1479 1478 1478 1477 1477 1477 1477 1477 1477